Accueil
METAR-TAF:

METAR-TAF

Aéroports :

Clayton Lake, Maine, États-Unis

latitude: 46-37N, longitude: 069-32W, altitude: 314 m

Observation

Le bulletin a été fait il y a 9 minutes, à 21:16 UTC
Vent 3 kt de direction variable avec des rafales jusqu'à 11 kt
Température 15°C
Humidité 27%
Pression 1014 hPa

METAR: K40B 242116Z AUTO VRB03G11KT 15/M04 A2995 RMK AO1 SLP145 T01521042 58011

Heure: 17:25 (21:25 UTC)


TAF: absent

Observations et prévisions météorologiques de plus de 4000 aéroports (messages METAR et TAF).

Les stations disponibles sont représentées par des disques jaunes et rouges sur la carte.

Passer la souris dessus pour voir le nom de la station.

Cliquer dessus pour voir les observations et prévisions météorologiques.

Pour changer de carte: cliquez sur les boutons verts avec une croix noire pour zoomer, sur le bouton vert avec un tiret pour effectuer un zoom arrière, ou sur les flèches vertes pour les cartes adjacentes.


METAR-TAF: